Location: Newark
(43.4306°N, 0.3089°E)
Time: 19:33:35
(UTC+00:00)

Vanguard 3 - Pass Details

Date: 25 August 2019
Orbit: 508 x 3263 km, 33.4° (Epoch: 22 September)

Event Time Altitude Azimuth Distance (km) Brightness Sun altitude
Rises 17:08:16 0° 245° (WSW) 4,979 12.4 16.9°
Reaches altitude 10° 17:12:36 10° 237° (WSW) 3,492 11.5 16.1°
Maximum altitude 17:19:33 31° 180° (S) 1,611 8.8 14.8°
Drops below altitude 10° 17:24:03 10° 118° (ESE) 2,216 8.9 14.0°
Sets 17:26:13 0° 106° (ESE) 2,938 9.4 13.6°
